Miscellaneous Local Product
Issued by NWS Hastings, NE

Home | Current Version | Previous Version | Graphics & Text | Print | Product List | Glossary Off
Versions: 1 2 3 4 5 6 7 8 9 10 11 12 13 14 15 16 17 18 19 20 21 22 23 24 25 26 27 28 29 30 31 32 33 34 35 36 37 38 39 40 41 42 43 44 45 46 47 48 49 50

000
AXUS43 KGID 280502
MISGRI

GID CWA HOURLY WEATHER ROUNDUP
NATIONAL WEATHER SERVICE HASTINGS NE
1200 AM CDT FRI AUG 28 2015

NOTE: "FAIR" INDICATES FEW OR NO CLOUDS BELOW 12,000 FEET WITH NO
SIGNIFICANT WEATHER AND/OR OBSTRUCTIONS TO VISIBILITY.

...SOUTH CENTRAL NEBRASKA...

CITY           SKY/WX    TMP DP  RH WIND       PRES   REMARKS
GRAND ISLAND   CLOUDY    75  66  73 SW15      29.84S
HASTINGS       MOCLDY    76  65  68 S14G26    29.85R
KEARNEY        PTCLDY    72  63  73 S9        29.86R
ORD            CLOUDY    70  66  87 E3        29.85S
YORK           LGT RAIN  72  68  88 CALM      29.84S
AURORA         CLOUDY    74  67  78 SW12G20   29.83S
LEXINGTON      CLEAR     70  67  92 W9        29.86S
HOLDREGE       CLEAR     73  64  71 S12G17    29.86S
HEBRON         CLOUDY    76  64  65 S20G26    29.85R

...NEBRASKA PANHANDLE...

CITY           SKY/WX    TMP DP  RH WIND       PRES   REMARKS
CHADRON        CLEAR     57  54  89 SW6       30.02F
ALLIANCE       PTCLDY    54  52  93 W6        30.05F
SCOTTSBLUFF    PTCLDY    65  57  75 CALM      30.08R
SIDNEY         PTCLDY    61  55  81 NW9       30.10R

...WESTERN AND NORTH CENTRAL NEBRASKA...

CITY           SKY/WX    TMP DP  RH WIND       PRES   REMARKS
VALENTINE      NOT AVBL
AINSWORTH      CLOUDY    70  69  98 N8        29.92F FOG
ONEILL         CLOUDY    70  68  94 E9        29.89F
BROKEN BOW     PTCLDY    69  66  90 N6        29.87F
IMPERIAL       CLEAR     68  60  75 NW13      29.99S
NORTH PLATTE   PTCLDY    70  65  84 NW9       29.93S
MCCOOK         PTCLDY    74  65  73 N9        29.91R

...EASTERN NEBRASKA...

CITY           SKY/WX    TMP DP  RH WIND       PRES   REMARKS
NORFOLK        RAIN      68  65  90 SE18G29   29.88R
SO SIOUX CITY  RAIN      67  63  87 E17       29.94R
TEKAMAH        LGT RAIN  69  67  93 SE8       29.95R
COLUMBUS       CLOUDY   N/A N/A N/A SE7       29.88S
ALBION         CLOUDY    68  66  91 SE8       29.85S
OMAHA EPPLEY   LGT RAIN  70  65  84 SE7       29.94R
OFFUTT AFB     RAIN      69  66  90 E6        29.92R
MILLARD        CLOUDY    71  68  88 E3        29.93R
LINCOLN        LGT RAIN  71  66  84 E12       29.85R
NEBRASKA CITY  CLOUDY    69  67  94 S15G22    29.91F
BEATRICE       CLOUDY    70  64  82 SE18G30   29.86F
FALLS CITY     CLOUDY    70  66  87 SE13      29.92F

...NORTHERN KANSAS...

CITY           SKY/WX    TMP DP  RH WIND       PRES   REMARKS
GOODLAND       PTCLDY    71  60  68 NW14      30.01R
HILL CITY      LGT RAIN  77  64  64 SW12      29.87S
NORTON         PTCLDY    75  63  64 NW7       29.88R
PHILLIPSBURG   CLEAR     79  64  61 SE13G20   29.86S
SMITH CENTER   PTCLDY    72  66  83 S18G24    29.87R
HAYS           MOCLDY    81  61  50 S23G33    29.88R
RUSSELL        MOCLDY    77  68  73 S21G28    29.87R
CONCORDIA      CLOUDY    74  62  66 S31G44    29.88F
SALINA         LGT RAIN  75  69  81 SE17      29.92F
TOPEKA         CLOUDY    71  67  87 SE10      29.96F



USA.gov is the U.S. government's official web portal to all federal, state and local government web resources and services.